Regional Weather Roundup
Issued by NWS Charleston, SC

Current Version | Previous Version | Graphics & Text | Print | Product List | Glossary On
Versions: 1 2 3 4 5 6 7 8 9 10 11 12 13 14 15 16 17 18 19 20 21 22 23 24 25 26 27 28 29 30 31 32 33 34 35 36 37 38 39 40 41 42 43 44 45 46 47 48 49 50
000 ASUS42 KCHS 240013 RWRCHS REGIONAL WEATHER ROUNDUP NATIONAL WEATHER SERVICE CHARLESTON SC 800 PM EDT SAT JUL 23 2016 NOTE: "FAIR" INDICATES FEW OR NO CLOUDS BELOW 12,000 FEET WITH NO SIGNIFICANT WEATHER AND/OR OBSTRUCTIONS TO VISIBILITY. NOT ALL STATIONS ARE QUALITY CONTROLLED. USE DATA WITH CAUTION... ESPECIALLY DEWPOINT OBSERVATIONS. SCZ027-030-031-034>040-042>050-240100- ...SOUTHEAST SOUTH CAROLINA... CITY SKY/WX TMP DP RH WIND PRES REMARKS N CHARLESTON PTCLDY 86 74 67 S8 29.97S HX 94 6HR MIN TEMP: 86; 6HR MAX TEMP: 95; WATERFRONT PRK N/A 86 77 74 S10 29.95S HX 97 MOUNT PLEASANT FAIR 86 75 70 CALM 29.98R HX 95 JOHNS ISLAND FAIR 86 77 74 S8 29.97S HX 97 PINOPOLIS N/A 90 75 62 VRB2 29.88S HX 100 MONCKS CORNER FAIR 84 70 61 S7 29.96S SUMMERVILLE FAIR 86 75 70 CALM 29.97S HX 95 BEAUFORT MCAS PTCLDY 88 73 61 S5 29.96F HX 95 6HR MIN TEMP: 88; 6HR MAX TEMP: 96; BEAUFORT ARPT FAIR 86 73 66 S8 29.96F HX 93 HILTON HEAD IS PTCLDY 90 75 62 S6 29.98S HX 100 WALTERBORO PTCLDY 88 73 62 S6 29.97S HX 96 ALLENDALE FAIR 91 72 52 CALM 29.95S HX 98 ...SOUTHERN MIDLANDS AND PEE DEE... CITY SKY/WX TMP DP RH WIND PRES REMARKS GEORGETOWN FAIR 82 73 74 S6 29.99R KINGSTREE FAIR 84 73 70 SE7 29.97R HX 91 ORANGEBURG PTCLDY 87 71 58 N3 29.96S HX 93 6HR MIN TEMP: 87; 6HR MAX TEMP: 96; BARNWELL NOT AVBL AIKEN FAIR 84 73 70 NW3 30.02R HX 91 MANNING FAIR 86 75 70 CALM 29.95S HX 95 COLUMBIA CLOUDY 87 69 54 NW3 29.95F HX 91 6HR MIN TEMP: 80; 6HR MAX TEMP: 100; 6HR PCP: TRACE; SUMTER PTCLDY 85 69 60 W8 29.94S HAZE 6HR MIN TEMP: 85; 6HR MAX TEMP: 96; FLORENCE MOCLDY 87 76 69 S6 29.97R HX 97 6HR MIN TEMP: 87; 6HR MAX TEMP: 96; MYRTLE BEACH PTCLDY 84 72 65 S14 29.99R N MYRTLE BEACH PTCLDY 84 76 76 SW13 29.98R HX 93 6HR MIN TEMP: 79; 6HR MAX TEMP: 89; 6HR PCP: TRACE; $$ GAZ063-065-086>088-099>101-113>116-118-119-134>141-150-240100- ...SOUTHEAST GEORGIA... CITY SKY/WX TMP DP RH WIND PRES REMARKS SAVANNAH ARPT PTCLDY 86 72 62 S8 29.97R HX 92 6HR MIN TEMP: 82; 6HR MAX TEMP: 97; HUNTER AAF PTCLDY 85 78 78 S6 29.95S HX 96 6HR MIN TEMP: 85; 6HR MAX TEMP: 94; FORT STEWART PTCLDY 88 71 57 E1 29.94R HX 94 6HR MIN TEMP: 88; 6HR MAX TEMP: 97; STATESBORO MOCLDY 83 71 65 NW8 29.97R SYLVANIA NOT AVBL CLAXTON FAIR 83 75 76 CALM 29.97R HX 90 ...CSRA...CENTRAL AND FAR SOUTHEAST GEORGIA... CITY SKY/WX TMP DP RH WIND PRES REMARKS THOMSON NOT AVBL AUGUSTA-BUSH CLOUDY 90 73 57 NE3 29.95R HX 98 6HR MIN TEMP: 90; 6HR MAX TEMP: 98; AUGUSTA-DANIEL MOCLDY 91 70 49 NW6 29.98R HX 96 SWAINSBORO FAIR 82 73 74 CALM 29.99R VIDALIA RAIN 86 70 58 SW3 29.99R HX 90 EASTMAN FAIR 79 62 55 S6 30.01S HAZLEHURST DRIZZLE 80 76 90 CALM 29.98R ALMA PTCLDY 81 72 74 N6 29.98R 6HR MIN TEMP: 81; 6HR MAX TEMP: 96; WAYCROSS CLEAR 92 72 51 CALM 29.96S HX 100 JESUP FAIR 90 75 62 S3 29.97R HX 100 BAXLEY FAIR 81 77 89 NW3 29.98S BRUNSWICK CLEAR 88 75 66 SE9 29.98S HX 97 SAINT SIMONS CLEAR 86 73 65 S10G21 29.97F HX 93 6HR MIN TEMP: 86; 6HR MAX TEMP: 93; $$ SCZ027-028-034-036>038-045-046-048>050-GAZ119-141-240100- ...LAKE AND SUPPLEMENTAL COASTAL OBSERVATIONS... STATION/POSITION TIME TEMP WIND PRES WAVE SWELL AIR SEA DIR/SP/G HT/PER HT/PER/DIR (UTC) (F) (DEG/KT/KT) (MB) (FT/S) (FT/S/D) WINYAH BAY 2245 87 210/ 9 1014.0 LAKE MURRAY 2300 86 CALM / 3 1014.2R ACE BASIN NERRS NOT AVBL FORT PULASKI 2300 87 88 N/A SAPELO ISLAND 2300 90 160/ 9 1015.0S $$ ANZ835-935-AMZ111-154-330-350-352-354-370-450-454-472-240100- ...C-MAN AND BUOY OBSERVATIONS... STATION/POSITION TIME TEMP WIND PRES WAVE SWELL AIR SEA DIR/SP/G HT/PER HT/PER/DIR (UTC) (F) (DEG/KT/KT) (MB) (FT/S) (FT/S/D) BUOY 41004 2350 85 86 200/ 10/ 10 1014.8F 2/ 9 2/130/ 9 BUOY 41008 2350 85 87 150/ 12/ 14 1014.9F 2/ 8 2/100/ 8 FOLLY BEACH CMAN 0000 85 190/ 12/ 13 1015.1F CAPERS NEARSHORE 2308 85 85 200/ 12/ 16 1014.8F FRIPP NEARSHORE 2308 86 87 190/ 12/ 16 1014.4S STATION/POSITION TIME TEMP WIND PRES WAVE SWELL AIR SEA DIR/SP/G HT/PER HT/PER/DIR (UTC) (F) (DEG/KT/KT) (MB) (FT/S) (FT/S/D) 5E ST. MARYS GA 2301 87 N/A 2/ 8 FRYING PAN BUOY 2300 85 86 190/ 6/ 8 1015.0S BUOY 41025 2350 85 86 220/ 14/ 16 1015.0R 3/ 8 2/110/ 8 CAPE LOOKOUT NC 0000 83 210/ 8/ 11 1014.8R BUOY 41002 2350 83 85 140/ 6/ 8 1016.4R 3/ 8 3/100/ 8 BUOY 41010 2320 85 88 40/ 2/ 4 1016.4R ST AUGUSTINE FL 0000 84 88 140/ 11/ 12 1016.4F $$

USA.gov is the U.S. government's official web portal to all federal, state and local government web resources and services.